GPM-CORE

Last updated on Sun Dec 07 2025 00:02:30 GMT+0000 (Coordinated Universal Time)

1 39574U 14009C 25340.67121476 .00022445 00000+0 47078-3 0 9995 2 39574 64.9744 233.0170 0010539 269.2106 90.7828 15.45338585668072
UTC large
Height (km)
Speed (km/s)
/
Latitude / Longitude
Inclination (degrees)
Orbital Period (minutes)
Azimuth
Elevation
Range (km)
Doppler Factor

Next 0 passes for location: London (51.5072 / 0.1276)

Sorry there are no passes over London.